User: anonymous
Location: Astronight Observatory
(42.6003°N, 71.2981°W)
Time: 11:42:34
(UTC-04:00)
Language:

DELTA 2 R/B (1) - Orbit

View from above orbital plane
View from above orbital plane
View from above satellite
View from above satellite

Ground track
Ground track

The orbit data is extracted from the following two-line orbital elements,

1 27665U 03005C   14234.11916135 -.00000124  00000-0 -15296-4 0   936
2 27665 039.5759 314.5203 0008212 052.1795 029.8997 14.28210613603614
Epoch (UTC): 22 August 2014 02:51:35
Eccentricity: 0.0008212
inclination: 39.5759°
perigee height: 792 km
apogee height: 803 km
right ascension of ascending node: 314.5203°
argument of perigee: 52.1795°
revolutions per day: 14.28210613
mean anomaly at epoch: 29.8997°
orbit number at epoch: 60361

The dashed part of the orbit path shows where the satellite is in the earth's shadow,  

DLR